This is the latest recevied weather packets stored in our database for station/object IZ1MEU-13. If no packets are shown the sender has not sent any weather packets the latest 10 day(s).
| Time | Temp. | Humidity | Pressure | Rain* | Wind** | Luminosity | Snow |
|---|---|---|---|---|---|---|---|
| 1778067968 | 18.33° C | 50% | 1008.8 hPa | - | - | - | - |
| 1778066763 | 18.89° C | 51% | 1008.9 hPa | - | - | - | - |
| 1778065559 | 17.78° C | 54% | 1009.1 hPa | - | - | - | - |
| 1778064355 | 17.22° C | 56% | 1009.3 hPa | - | - | - | - |
| 1778063151 | 16.11° C | 57% | 1009.5 hPa | - | - | - | - |
| 1778061946 | 15.56° C | 58% | 1009.5 hPa | - | - | - | - |
| 1778060742 | 15.56° C | 58% | 1009.7 hPa | - | - | - | - |
| 1778059538 | 15° C | 58% | 1009.8 hPa | - | - | - | - |
| 1778058334 | 15.56° C | 59% | 1009.7 hPa | - | - | - | - |
| 1778057129 | 14.44° C | 60% | 1009.8 hPa | - | - | - | - |
| 1778055925 | 13.89° C | 60% | 1010 hPa | - | - | - | - |
| 1778054721 | 13.89° C | 61% | 1010.1 hPa | - | - | - | - |
| 1778053516 | 13.89° C | 61% | 1010 hPa | - | - | - | - |
| 1778052312 | 13.33° C | 62% | 1010.1 hPa | - | - | - | - |
| 1778051108 | 12.22° C | 64% | 1009.9 hPa | - | - | - | - |
| 1778049904 | 12.22° C | 63% | 1009.9 hPa | - | - | - | - |
| 1778048700 | 12.78° C | 64% | 1009.9 hPa | - | - | - | - |
| 1778047495 | 12.22° C | 65% | 1010.1 hPa | - | - | - | - |
| 1778046291 | 11.11° C | 66% | 1010.1 hPa | - | - | - | - |
| 1778045087 | 11.11° C | 67% | 1010.3 hPa | - | - | - | - |
| 1778043882 | 11.11° C | 66% | 1010.5 hPa | - | - | - | - |
| 1778042677 | 10.56° C | 66% | 1010.7 hPa | - | - | - | - |
| 1778041472 | 10.56° C | 66% | 1010.9 hPa | - | - | - | - |
| 1778040268 | 11.11° C | 66% | 1011 hPa | - | - | - | - |
| 1778039063 | 10.56° C | 66% | 1011.2 hPa | - | - | - | - |
* Rain since midnight (hover to see other rain measurements)
** Current wind speed in m/s (hover to see current wind gust speed)